Flag for Antigua and Barbuda Weather past 2 weeks in Saint John's, Antigua and Barbuda

79 °F

Passing clouds.

Feels Like: 82 °F
Forecast: 78 / 84 °F
Wind: 12 mph from East

Location: Vc Bird International Antigua Airport

Current Time: Nov 30, 2015 at 10:35:26 PM

Latest Report: Nov 30, 2015 at 10:00 PM

Visibility: N/A

Pressure: 29.95 "Hg

Humidity: 84%

Dew point: 73 °F

Location of Saint John'sLocation

Historic Weather in Saint John's — Graph


Saint John's temperature yesterday

Maximum temperature yesterday: 84 °F (at 12:00 PM)
Minimum temperature yesterday: 77 °F (at 4:00 AM)
Average temperature yesterday: 80 °F

Past Weeks' High & Low Weather Summary

High86 °F (Nov 17, 7:00 PM)94% (Nov 27, 10:00 PM)30.01 "Hg (Nov 27, 10:00 PM)
Low73 °F (Nov 20, 5:00 AM)55% (Nov 20, 11:00 AM)29.83 "Hg (Nov 20, 2:00 AM)
Average80 °F75%29.92 "Hg
* Reported Nov 15 8:00 PM — Nov 30 8:00 PM, Saint John's, Weather by CustomWeather, © 2015

Note: Actual official high and low records may vary slightly from our data, if they occured in-between our weather recording intervals... More about our weather records


Saint John's weather history for previous 24 hours

Time TempWeatherWind HumidityBarometerVisibility
8:00 PM
Mon, Nov 30
81 °FPartly cloudy.12 mph84%29.92 "HgN/A
7:00 PM81 °FPassing clouds.12 mph79%29.92 "HgN/A
6:00 PM81 °FWarm.10 mph79%29.92 "HgN/A
5:00 PM81 °FScattered clouds.13 mph79%29.89 "HgN/A
4:00 PM82 °FScattered clouds.13 mph74%29.89 "HgN/A
3:00 PM82 °FScattered clouds.12 mph74%29.89 "HgN/A
2:00 PM82 °FScattered clouds.12 mph74%29.89 "HgN/A
1:00 PM82 °FPartly sunny.13 mph74%29.92 "HgN/A
12:00 PM84 °FScattered clouds.10 mph70%29.95 "HgN/A
11:00 AM82 °FScattered clouds.13 mph74%29.98 "HgN/A
10:00 AM82 °FPassing clouds.10 mph74%29.98 "HgN/A
9:00 AM82 °FPassing clouds.12 mph74%29.98 "HgN/A
8:00 AM81 °FPassing clouds.9 mph79%29.95 "HgN/A
7:00 AM79 °FPassing clouds.9 mph84%29.92 "HgN/A
6:00 AM77 °FPassing clouds.8 mph83%29.92 "HgN/A
5:00 AM77 °FPassing clouds.3 mph89%29.89 "HgN/A
4:00 AM77 °FPartly cloudy.7 mph89%29.89 "HgN/A
3:00 AM75 °FPassing clouds.2 mph89%29.92 "HgN/A
2:00 AM75 °FSprinkles. Passing clouds.5 mph89%29.92 "HgN/A
1:00 AM75 °FSprinkles. Partly cloudy.9 mph89%29.95 "HgN/A
12:00 AM79 °FLight rain. Partly cloudy.10 mph79%29.95 "HgN/A
11:00 PM
Sun, Nov 29
77 °FPartly cloudy.9 mph89%29.95 "HgN/A
10:00 PM77 °FSprinkles. Partly cloudy.9 mph89%29.95 "HgN/A
Weather by CustomWeather, © 2015

See weather overviewHow to use our weather pages